Regional Weather Roundup
Issued by NWS

Home | Current Version | Previous Version | Text Only | Print | Product List | Glossary On
Versions: 1 2 3 4 5 6 7 8 9 10 11 12 13 14 15 16 17 18 19 20 21 22 23 24 25 26 27 28 29 30 31 32 33 34 35 36 37 38 39 40 41 42 43 44 45 46 47 48 49 50
000
ASUS44 KFWD 260810
RWRTX
NORTH TEXAS HOURLY WEATHER ROUNDUP
NATIONAL WEATHER SERVICE FORT WORTH TX
300 AM CDT TUE JUL 26 2016

NOTE: "FAIR" INDICATES FEW OR NO CLOUDS BELOW 12,000 FEET WITH NO
SIGNIFICANT WEATHER AND/OR OBSTRUCTIONS TO VISIBILITY.

TXZ118-119-260900-
DALLAS/FORT WORTH METROPLEX

CITY           SKY/WX    TMP DP  RH WIND       PRES   REMARKS
DFW AIRPORT    CLOUDY    79  71  76 CALM      29.95R
DALLAS LOVE    MOCLDY    81  71  71 SW3       29.95R
FTW MEACHAM    CLEAR     79  70  74 S5        29.95S
DAL-EXECUTIVE  CLOUDY    76  70  82 S3        29.95S
FTW-ALLIANCE   MOCLDY    73  70  90 S3        29.94S
FTW-NAS-JRB    CLEAR     79  70  74 S3        29.95S
FTW-SPINKS     FOG       74  71  90 CALM      29.97S VSB 1
ARLINGTON      PTCLDY    76  72  87 CALM      29.95S
GRAND PRAIRIE  PTCLDY    78  71  78 S3        29.96S
ADDISON        PTCLDY    80  73  78 CALM      29.97S
MESQUITE       PTCLDY    74  74 100 CALM      29.95F
LANCASTER      CLEAR     76  72  87 CALM      29.95F
$$

TXZ091>094-102>105-117-120-121-131>134-260900-
NORTH CENTRAL TEXAS

CITY           SKY/WX    TMP DP  RH WIND       PRES   REMARKS
SHRMAN/DENISON CLOUDY    76  73  90 NE3       29.97S
GAINESVILLE    MOCLDY    74  71  90 CALM      29.98S
BOWIE          PTCLDY    75  72  90 CALM      29.97F
BRIDGEPORT     PTCLDY    74  73  96 CALM      29.97F
DECATUR        CLOUDY    78  69  74 CALM      29.97S
DENTON         CLEAR     74  71  91 CALM      29.95R
MCKINNEY       MOCLDY    75  73  93 CALM      29.95S
GREENVILLE     PTCLDY    75  72  88 CALM      29.96S
ROCKWALL       CLOUDY    76  75  97 CALM      29.95S
TERRELL        PTCLDY    77  73  87 CALM      29.95F
WAXAHACHIE     PTCLDY    73  73 100 CALM      29.97S
CLEBURNE       PTCLDY    75  73  94 CALM      29.97F
GRANBURY       CLEAR     76  69  79 CALM      29.97S
$$

TXZ083>090-098>101-113>116-127>130-139>142-154-155-260900-
WESTERN NORTH TEXAS

CITY           SKY/WX    TMP DP  RH WIND       PRES   REMARKS
WICHITA FALLS  PTCLDY    76  71  85 SE7       29.96S
WF-KICKAPOO    PTCLDY    78  71  77 E9        29.97F
VERNON         PTCLDY    81  67  60 CALM      29.99S
ABILENE        CLEAR     75  68  78 S5        30.00F
ABILENE-DYESS  CLEAR     76  67  75 SE5       29.98F
CISCO          CLEAR     72  68  88 CALM      29.99F
BRECKENRIDGE   PTCLDY    78  69  73 CALM      29.97S
GRAHAM         CLEAR     75  70  84 CALM      29.96F
MINERAL WELLS  CLEAR     74  70  87 SE8       29.95S
STEPHENVILLE   CLEAR     74  69  85 CALM      29.99S
COMANCHE       PTCLDY    73  73 100 CALM      29.97F
BROWNWOOD      CLOUDY    75  70  83 CALM      29.97F
COLEMAN        CLEAR     74  67  76 CALM      29.99S
$$

TXZ143>147-156>162-174-175-260900-
CENTRAL TEXAS

CITY           SKY/WX    TMP DP  RH WIND       PRES   REMARKS
WACO           CLEAR     74  72  93 NW3       29.94S
HILLSBORO      PTCLDY    71  70  98 CALM      29.95F
CORSICANA      MOCLDY    76  72  87 NW3       29.94F
MEXIA          CLOUDY    73  73  99 N5        29.93S
HEARNE         CLOUDY    74  74  98 CALM      29.95R
CAMERON        MOCLDY    76  74  96 CALM      29.93S
TEMPLE         CLEAR     74  73  97 CALM      29.95S
KILLEEN        MOCLDY    75  72  88 E3        29.95R
KILLEEN-SKYLRK PTCLDY    74  73  97 CALM      29.95S
FORT HOOD      PTCLDY    73  72  95 E3        29.93F
GATESVILLE     PTCLDY    73  73 100 CALM      29.98S
HAMILTON       CLOUDY    74  73  97 CALM      29.98S
LAMPASAS       CLOUDY    75  74  96 CALM      29.95S
$$

TXZ095>097-106>112-122>126-135>138-148>153-164>167-260900-
EAST TEXAS

CITY           SKY/WX    TMP DP  RH WIND       PRES   REMARKS
PARIS          CLEAR     75  64  69 E5        29.95F
SULPHUR SPRNGS CLEAR     76  74  93 W3        29.97F
MOUNT PLEASANT CLEAR     78  73  85 NW5       29.96S
GILMER         CLEAR     75  74  96 CALM      29.95S THUNDER
MINEOLA        PTCLDY    75  73  94 CALM      29.96S
TYLER          PTCLDY    76  72  87 CALM      29.94S
LONGVIEW       CLEAR     74  73  97 CALM      29.94R
MARSHALL       CLEAR     73  70  91 CALM      29.96S
ATHENS         CLOUDY    73  73 100 CALM      29.93F
PALESTINE      CLOUDY    75  75 100 CALM      29.95S FOG
JACKSONVILLE     N/A     73  73  99 CALM      29.97S
HENDERSON      CLEAR     73  73 100 CALM      29.96S
CENTER         FOG       76  74  95 CALM      29.96R VSB 1/4
NACOGDOCHES    PTCLDY   N/A N/A N/A CALM      29.93S
LUFKIN         FOG       74  73  97 CALM      29.94S VSB 1/4
$$

SUPPLEMENTAL OBSERVATIONS (CENTRAL)

CITY           SKY/WX    TMP DP  RH WIND       PRES   REMARKS
PAT MAYSE LAKE   N/A     75  73  94 N2          N/A
GREENVILLE       N/A     75  70  83 NE2         N/A
CEDAR HILL       N/A     73  70  88 S2          N/A
MCGREGOR         N/A     73  72  94 N1          N/A
TEMPLE           N/A     73  70  88 SW1         N/A
$$

SUPPLEMENTAL OBSERVATIONS (WEST)

CITY           SKY/WX    TMP DP  RH WIND       PRES   REMARKS
MILLERS CREEK    N/A     79  68  69 S5          N/A
POSSUM KINGDOM   N/A     75  66  73 S1          N/A
GRANBURY         N/A     75  68  78 W3          N/A
HAMBY            N/A     75  64  69 SE2         N/A
IVIE RESERVOIR   N/A     75  68  78 NW2         N/A
COLORADO BEND    N/A     72  68  88 CALM        N/A
$$

SUPPLEMENTAL OBSERVATIONS (EAST)

CITY           SKY/WX    TMP DP  RH WIND       PRES   REMARKS
CLARKSVILLE      N/A     75  72  88 CALM        N/A
TEXARKANA        N/A     73  72  94 CALM        N/A
LINDEN           N/A     75  72  88 CALM        N/A
GILMER           N/A     75  72  88 NW1         N/A
HENDERSON        N/A     73  70  88 S3          N/A
LUFKIN           N/A     75  73  94 MISG        N/A
N SABINE NF      N/A     73  70  88 MISG        N/A
S SABINE NF      N/A     73  72  94 CALM        N/A
$$

SUPPLEMENTAL OBSERVATIONS ARE A COLLECTION OF AUTOMATED INSTRUMENTS
THAT ARE MAINTAINED BY A VARIETY OF FEDERAL AND STATE AGENCIES.
CERTAIN ELEMENTS...SUCH AS HUMIDITY VALUES AND SUSTAINED WIND
SPEEDS...MAY BE APPROXIMATED.





USA.gov is the U.S. government's official web portal to all federal, state and local government web resources and services.